| time (UTC) | temp F | wind direction | speed knots | gust knots | rain 1hr in | rain 24hr in | rain mn in | humidity % | barometer mb |
| 20260507085422 | 49 | 325 | 0.9 | 7.8 | 0.00 | 0.24 | 0.03 | 91 | 1005.4 |
| 20260507084922 | 49 | 335 | 0.9 | 7.8 | 0.00 | 0.24 | 0.03 | 92 | 1005.3 |
| 20260507084422 | 49 | 346 | 1.7 | 7.8 | 0.00 | 0.24 | 0.03 | 92 | 1005.4 |
| 20260507083924 | 49 | 347 | 1.7 | 7.8 | 0.00 | 0.24 | 0.03 | 92 | 1005.6 |
| 20260507083424 | 49 | 331 | 1.7 | 7.0 | 0.00 | 0.24 | 0.03 | 93 | 1005.8 |
| 20260507082922 | 49 | 309 | 0.9 | 6.1 | 0.00 | 0.24 | 0.03 | 93 | 1005.7 |
| 20260507082422 | 50 | 328 | 0.9 | 4.3 | 0.00 | 0.24 | 0.03 | 94 | 1005.5 |
| 20260507081922 | 50 | 336 | 0.9 | 3.5 | 0.00 | 0.24 | 0.03 | 94 | 1005.2 |
| 20260507081423 | 50 | 338 | 0.0 | 3.5 | 0.00 | 0.24 | 0.03 | 94 | 1005.2 |
| 20260507080922 | 50 | 338 | 0.0 | 4.3 | 0.00 | 0.24 | 0.03 | 94 | 1005.0 |
| 20260507080422 | 50 | 338 | 0.9 | 4.3 | 0.00 | 0.24 | 0.03 | 94 | 1004.8 |
| 20260507075922 | 50 | 345 | 0.9 | 4.3 | 0.00 | 0.24 | 0.03 | 95 | 1004.8 |
| 20260507075417 | 50 | 339 | 0.0 | 2.6 | 0.00 | 0.24 | 0.03 | 95 | 1004.9 |
| 20260507074911 | 50 | 339 | 0.0 | 1.7 | 0.00 | 0.24 | 0.03 | 95 | 1004.9 |
| 20260507074404 | 50 | 339 | 0.0 | 0.0 | 0.00 | 0.24 | 0.03 | 95 | 1005.4 |
| 20260507074128 | 50 | 339 | 0.0 | 1.7 | 0.00 | 0.24 | 0.03 | 95 | 1005.3 |
| 20260507073353 | 50 | 339 | 0.0 | 3.5 | 0.00 | 0.24 | 0.03 | 95 | 1005.0 |
| 20260507072846 | 51 | 339 | 0.0 | 3.5 | 0.00 | 0.24 | 0.03 | 95 | 1005.0 |
| 20260507072604 | 51 | 339 | 0.0 | 0.9 | 0.00 | 0.24 | 0.03 | 95 | 1004.9 |
| 20260507071834 | 51 | 339 | 0.0 | 0.9 | 0.00 | 0.24 | 0.03 | 95 | 1004.7 |
| 20260507071329 | 51 | 339 | 0.0 | 0.0 | 0.00 | 0.24 | 0.03 | 95 | 1004.5 |
| 20260507070823 | 51 | 339 | 0.0 | 0.9 | 0.00 | 0.24 | 0.03 | 95 | 1004.4 |
| 20260507070317 | 51 | 339 | 0.0 | 0.9 | 0.00 | 0.24 | 0.03 | 95 | 1004.5 |
| 20260507065811 | 51 | 339 | 0.0 | 0.9 | 0.00 | 0.24 | 0.03 | 95 | 1004.5 |
| 20260507065306 | 51 | 339 | 0.0 | 0.9 | 0.00 | 0.24 | 0.03 | 95 | 1004.4 |
| 20260507064804 | 51 | 339 | 0.0 | 0.0 | 0.00 | 0.24 | 0.03 | 95 | 1004.5 |
| 20260507064305 | 51 | 339 | 0.0 | 0.0 | 0.00 | 0.24 | 0.03 | 95 | 1004.4 |
| 20260507063804 | 51 | 339 | 0.0 | 0.0 | 0.00 | 0.24 | 0.03 | 95 | 1004.4 |
| 20260507063302 | 51 | 339 | 0.0 | 0.0 | 0.01 | 0.24 | 0.03 | 95 | 1004.5 |
| 20260507062800 | 51 | 339 | 0.0 | 0.0 | 0.01 | 0.24 | 0.03 | 95 | 1004.4 |
| 20260507062301 | 51 | 339 | 0.0 | 1.7 | 0.01 | 0.24 | 0.03 | 95 | 1004.5 |
| 20260507061758 | 51 | 339 | 0.0 | 1.7 | 0.01 | 0.24 | 0.03 | 95 | 1004.3 |
| 20260507061258 | 51 | 339 | 0.0 | 2.6 | 0.01 | 0.24 | 0.03 | 95 | 1004.2 |
| 20260507061026 | 51 | 339 | 0.0 | 2.6 | 0.01 | 0.24 | 0.03 | 95 | 1004.3 |
| 20260507060256 | 52 | 339 | 0.0 | 2.6 | 0.01 | 0.24 | 0.03 | 95 | 1004.4 |
| 20260507055755 | 52 | 339 | 0.0 | 2.6 | 0.01 | 0.24 | 0.03 | 95 | 1004.4 |
| 20260507055254 | 52 | 340 | 0.9 | 5.2 | 0.01 | 0.24 | 0.03 | 95 | 1004.3 |
| 20260507054755 | 52 | 339 | 1.7 | 7.0 | 0.02 | 0.24 | 0.03 | 95 | 1004.1 |
| 20260507054254 | 52 | 355 | 2.6 | 7.8 | 0.02 | 0.24 | 0.03 | 95 | 1004.1 |
| 20260507053755 | 53 | 327 | 1.7 | 7.8 | 0.02 | 0.24 | 0.03 | 95 | 1004.0 |
| 20260507053254 | 53 | 323 | 1.7 | 7.8 | 0.01 | 0.23 | 0.02 | 96 | 1004.0 |
| 20260507052754 | 53 | 17 | 1.7 | 7.0 | 0.01 | 0.23 | 0.02 | 95 | 1003.9 |
| 20260507052253 | 54 | 5 | 1.7 | 7.0 | 0.02 | 0.23 | 0.02 | 96 | 1004.0 |
| 20260507051748 | 54 | 14 | 0.9 | 3.5 | 0.02 | 0.23 | 0.02 | 96 | 1004.0 |
| 20260507051242 | 54 | 24 | 0.9 | 3.5 | 0.02 | 0.23 | 0.02 | 96 | 1004.2 |
| 20260507051003 | 54 | 235 | 0.9 | 6.1 | 0.02 | 0.23 | 0.02 | 96 | 1003.9 |
| 20260507050230 | 54 | 234 | 0.9 | 6.1 | 0.02 | 0.23 | 0.02 | 96 | 1003.8 |
| 20260507045723 | 54 | 244 | 0.9 | 7.0 | 0.03 | 0.23 | 0.02 | 96 | 1003.8 |
| 20260507045439 | 54 | 281 | 0.0 | 7.0 | 0.03 | 0.23 | 0.02 | 96 | 1003.7 |
| 20260507044710 | 54 | 249 | 0.0 | 2.6 | 0.02 | 0.22 | 0.01 | 96 | 1003.6 |
| 20260507044203 | 54 | 249 | 0.0 | 1.7 | 0.02 | 0.22 | 0.01 | 96 | 1003.3 |
| 20260507043657 | 54 | 249 | 0.0 | 2.6 | 0.02 | 0.22 | 0.01 | 96 | 1003.3 |
| 20260507043153 | 54 | 248 | 0.0 | 2.6 | 0.03 | 0.22 | 0.01 | 96 | 1003.4 |
| 20260507042645 | 53 | 248 | 0.0 | 1.7 | 0.02 | 0.21 | 0.01 | 96 | 1003.1 |
| 20260507042139 | 53 | 248 | 0.0 | 4.3 | 0.02 | 0.21 | 0.00 | 96 | 1003.2 |
| 20260507041633 | 53 | 248 | 0.0 | 4.3 | 0.02 | 0.21 | 0.00 | 97 | 1003.2 |
| 20260507041127 | 53 | 243 | 0.0 | 1.7 | 0.02 | 0.21 | 0.00 | 96 | 1003.2 |
| 20260507040621 | 52 | 243 | 0.0 | 3.5 | 0.02 | 0.21 | 0.00 | 96 | 1003.4 |
| 20260507040337 | 52 | 231 | 0.9 | 4.3 | 0.02 | 0.21 | 0.00 | 96 | 1003.6 |
| 20260507035810 | 51 | 240 | 2.6 | 7.8 | 0.01 | 0.20 | 0.20 | 96 | 1003.5 |
| 20260507035654 | 52 | 214 | 1.7 | 4.3 | 0.01 | 0.20 | 0.20 | 96 | 1003.4 |
| 20260507034557 | 51 | 239 | 2.6 | 7.0 | 0.01 | 0.20 | 0.20 | 96 | 1003.6 |
| 20260507034051 | 51 | 220 | 2.6 | 7.0 | 0.01 | 0.20 | 0.20 | 96 | 1003.3 |
| 20260507033547 | 51 | 258 | 3.5 | 9.6 | 0.01 | 0.20 | 0.20 | 96 | 1003.3 |
| 20260507033039 | 50 | 210 | 4.3 | 10.4 | 0.00 | 0.19 | 0.19 | 96 | 1003.4 |
| 20260507032534 | 50 | 267 | 4.3 | 10.4 | 0.00 | 0.19 | 0.19 | 96 | 1003.4 |
| 20260507032255 | 50 | 285 | 3.5 | 7.8 | 0.00 | 0.19 | 0.19 | 96 | 1003.1 |
| 20260507031740 | 50 | 190 | 4.3 | 9.6 | 0.00 | 0.19 | 0.19 | 96 | 1003.1 |
| 20260507031015 | 50 | 238 | 3.5 | 10.4 | 0.00 | 0.19 | 0.19 | 96 | 1003.1 |
| 20260507030510 | 50 | 205 | 3.5 | 12.2 | 0.00 | 0.19 | 0.19 | 95 | 1003.1 |
| 20260507030004 | 50 | 186 | 3.5 | 12.2 | 0.00 | 0.19 | 0.19 | 96 | 1003.1 |
| 20260507025457 | 50 | 186 | 3.5 | 8.7 | 0.00 | 0.19 | 0.19 | 96 | 1003.1 |
| 20260507024951 | 50 | 233 | 3.5 | 8.7 | 0.00 | 0.19 | 0.19 | 96 | 1003.2 |
| 20260507024445 | 50 | 251 | 3.5 | 8.7 | 0.00 | 0.19 | 0.19 | 96 | 1003.4 |
| 20260507023939 | 50 | 235 | 3.5 | 11.3 | 0.00 | 0.19 | 0.19 | 96 | 1003.3 |
| 20260507023433 | 50 | 228 | 3.5 | 11.3 | 0.00 | 0.19 | 0.19 | 96 | 1003.4 |
| 20260507022927 | 50 | 227 | 3.5 | 10.4 | 0.00 | 0.19 | 0.19 | 96 | 1003.5 |
| 20260507022422 | 50 | 213 | 3.5 | 10.4 | 0.00 | 0.19 | 0.19 | 96 | 1003.6 |
| 20260507021915 | 50 | 169 | 3.5 | 9.6 | 0.00 | 0.19 | 0.19 | 96 | 1003.7 |
| 20260507021410 | 50 | 182 | 4.3 | 10.4 | 0.00 | 0.19 | 0.19 | 96 | 1003.7 |
| 20260507020903 | 50 | 251 | 4.3 | 10.4 | 0.00 | 0.19 | 0.19 | 96 | 1003.7 |
| 20260507020357 | 50 | 194 | 3.5 | 9.6 | 0.00 | 0.19 | 0.19 | 96 | 1003.8 |
| 20260507015851 | 50 | 248 | 3.5 | 9.6 | 0.00 | 0.19 | 0.19 | 95 | 1003.8 |
| 20260507015346 | 50 | 227 | 2.6 | 9.6 | 0.00 | 0.19 | 0.19 | 95 | 1003.8 |
| 20260507014840 | 50 | 194 | 3.5 | 11.3 | 0.00 | 0.19 | 0.19 | 95 | 1003.9 |
| 20260507014334 | 50 | 218 | 3.5 | 11.3 | 0.00 | 0.19 | 0.19 | 95 | 1004.0 |
| 20260507014052 | 50 | 215 | 3.5 | 8.7 | 0.01 | 0.19 | 0.19 | 95 | 1004.1 |
| 20260507013544 | 50 | 235 | 3.5 | 7.8 | 0.01 | 0.19 | 0.19 | 95 | 1004.1 |
| 20260507012816 | 50 | 199 | 4.3 | 9.6 | 0.01 | 0.19 | 0.19 | 95 | 1004.1 |
| 20260507012309 | 50 | 166 | 4.3 | 9.6 | 0.01 | 0.19 | 0.19 | 95 | 1004.2 |
| 20260507011803 | 50 | 225 | 3.5 | 9.6 | 0.01 | 0.19 | 0.19 | 95 | 1004.2 |
| 20260507011258 | 50 | 204 | 3.5 | 12.2 | 0.01 | 0.19 | 0.19 | 95 | 1004.2 |
| 20260507010751 | 50 | 215 | 4.3 | 12.2 | 0.01 | 0.19 | 0.19 | 95 | 1004.3 |
| 20260507010246 | 51 | 186 | 4.3 | 11.3 | 0.01 | 0.19 | 0.19 | 95 | 1004.3 |
| 20260507010001 | 51 | 207 | 3.5 | 10.4 | 0.01 | 0.19 | 0.19 | 95 | 1004.3 |
| 20260507005234 | 51 | 227 | 4.3 | 10.4 | 0.01 | 0.19 | 0.19 | 95 | 1004.3 |
| 20260507004728 | 51 | 208 | 4.3 | 10.4 | 0.01 | 0.19 | 0.19 | 95 | 1004.2 |
| 20260507004221 | 51 | 207 | 4.3 | 10.4 | 0.01 | 0.19 | 0.19 | 95 | 1004.2 |
| 20260507003721 | 51 | 176 | 6.1 | 15.6 | 0.00 | 0.18 | 0.18 | 95 | 1004.2 |
| 20260507003443 | 51 | 225 | 5.2 | 15.6 | 0.00 | 0.18 | 0.18 | 95 | 1004.3 |
| 20260507002719 | 51 | 165 | 3.5 | 15.6 | 0.00 | 0.18 | 0.18 | 95 | 1004.2 |
| 20260507002710 | 51 | 183 | 4.3 | 11.3 | 0.00 | 0.18 | 0.18 | 95 | 1004.2 |
| 20260507001937 | 51 | 227 | 5.2 | 12.2 | 0.00 | 0.18 | 0.18 | 95 | 1004.2 |
| 20260507001219 | 51 | 204 | 5.2 | 13.9 | 0.00 | 0.18 | 0.18 | 95 | 1004.2 |
| 20260507000719 | 51 | 174 | 5.2 | 13.9 | 0.00 | 0.18 | 0.18 | 95 | 1004.3 |
| 20260507000219 | 51 | 213 | 7.0 | 17.4 | 0.00 | 0.18 | 0.18 | 95 | 1004.3 |
| 20260506235721 | 51 | 212 | 6.1 | 17.4 | 0.01 | 0.18 | 0.18 | 95 | 1004.3 |
| 20260506235221 | 51 | 180 | 5.2 | 14.8 | 0.01 | 0.18 | 0.18 | 95 | 1004.3 |
| 20260506234720 | 51 | 166 | 6.1 | 14.8 | 0.01 | 0.18 | 0.18 | 95 | 1004.2 |
| 20260506234439 | 51 | 170 | 6.1 | 15.6 | 0.01 | 0.18 | 0.18 | 95 | 1004.3 |
| 20260506233719 | 51 | 197 | 6.1 | 15.6 | 0.01 | 0.18 | 0.18 | 95 | 1004.3 |
| 20260506233219 | 51 | 142 | 6.1 | 16.5 | 0.01 | 0.18 | 0.18 | 95 | 1004.3 |
| 20260506232719 | 51 | 205 | 7.0 | 16.5 | 0.01 | 0.18 | 0.18 | 95 | 1004.3 |
| 20260506232657 | 51 | 155 | 7.0 | 13.9 | 0.02 | 0.18 | 0.18 | 95 | 1004.3 |
| 20260506231717 | 51 | 175 | 6.1 | 13.9 | 0.02 | 0.18 | 0.18 | 94 | 1004.4 |
| 20260506231439 | 51 | 246 | 6.1 | 15.6 | 0.02 | 0.18 | 0.18 | 94 | 1004.4 |
| 20260506230710 | 51 | 178 | 7.0 | 16.5 | 0.03 | 0.18 | 0.18 | 95 | 1004.5 |
| 20260506230427 | 51 | 234 | 7.0 | 16.5 | 0.03 | 0.18 | 0.18 | 95 | 1004.4 |
| 20260506225935 | 51 | 187 | 7.0 | 17.4 | 0.03 | 0.17 | 0.17 | 94 | 1004.5 |
| 20260506225210 | 51 | 167 | 7.8 | 17.4 | 0.04 | 0.17 | 0.17 | 94 | 1004.6 |
| 20260506224710 | 51 | 213 | 7.8 | 17.4 | 0.05 | 0.17 | 0.17 | 94 | 1004.5 |
| 20260506224209 | 51 | 182 | 7.0 | 15.6 | 0.06 | 0.17 | 0.17 | 94 | 1004.5 |
| 20260506223709 | 51 | 210 | 6.1 | 13.9 | 0.06 | 0.17 | 0.17 | 94 | 1004.6 |
| 20260506223208 | 52 | 192 | 6.1 | 16.5 | 0.07 | 0.17 | 0.17 | 94 | 1004.8 |
| 20260506222708 | 52 | 157 | 7.0 | 16.5 | 0.08 | 0.17 | 0.17 | 94 | 1004.7 |
| 20260506222208 | 52 | 170 | 6.1 | 13.9 | 0.07 | 0.16 | 0.16 | 94 | 1004.7 |
| 20260506221709 | 52 | 190 | 7.0 | 15.6 | 0.08 | 0.16 | 0.16 | 94 | 1004.7 |
| 20260506221209 | 52 | 170 | 7.8 | 15.6 | 0.09 | 0.16 | 0.16 | 94 | 1004.8 |
| 20260506220936 | 52 | 225 | 7.8 | 19.1 | 0.09 | 0.15 | 0.16 | 94 | 1004.9 |
| 20260506220209 | 52 | 166 | 7.8 | 19.1 | 0.10 | 0.15 | 0.15 | 94 | 1004.9 |
| 20260506215707 | 52 | 257 | 7.8 | 16.5 | 0.09 | 0.14 | 0.14 | 94 | 1005.1 |
| 20260506215208 | 52 | 202 | 7.8 | 16.5 | 0.09 | 0.13 | 0.13 | 94 | 1005.1 |
| 20260506214708 | 52 | 178 | 7.8 | 15.6 | 0.08 | 0.12 | 0.12 | 94 | 1005.1 |
| 20260506214208 | 52 | 144 | 7.0 | 19.1 | 0.08 | 0.11 | 0.11 | 93 | 1005.1 |
| 20260506213708 | 52 | 203 | 7.0 | 19.1 | 0.08 | 0.11 | 0.11 | 93 | 1005.1 |
| 20260506213207 | 52 | 172 | 7.0 | 16.5 | 0.08 | 0.10 | 0.10 | 93 | 1005.3 |
| 20260506212707 | 53 | 177 | 6.1 | 15.6 | 0.07 | 0.09 | 0.09 | 93 | 1005.3 |
| 20260506212207 | 53 | 205 | 6.1 | 16.5 | 0.07 | 0.09 | 0.09 | 93 | 1005.3 |
| 20260506211925 | 52 | 142 | 5.2 | 16.5 | 0.06 | 0.08 | 0.08 | 93 | 1005.4 |
| 20260506211207 | 52 | 167 | 5.2 | 14.8 | 0.05 | 0.07 | 0.07 | 93 | 1005.4 |
| 20260506210707 | 52 | 173 | 6.1 | 14.8 | 0.04 | 0.06 | 0.06 | 93 | 1005.4 |
| 20260506210206 | 52 | 239 | 5.2 | 10.4 | 0.04 | 0.05 | 0.05 | 92 | 1005.5 |
| 20260506205703 | 52 | 188 | 4.3 | 10.4 | 0.04 | 0.05 | 0.05 | 92 | 1005.6 |
| 20260506205204 | 52 | 180 | 4.3 | 10.4 | 0.04 | 0.04 | 0.04 | 92 | 1005.6 |
| 20260506204703 | 53 | 194 | 4.3 | 9.6 | 0.04 | 0.04 | 0.04 | 92 | 1005.6 |
| 20260506204205 | 53 | 180 | 3.5 | 8.7 | 0.03 | 0.03 | 0.03 | 92 | 1005.7 |
| 20260506203704 | 53 | 284 | 3.5 | 11.3 | 0.03 | 0.03 | 0.03 | 92 | 1005.7 |
| 20260506203205 | 53 | 213 | 4.3 | 13.0 | 0.02 | 0.02 | 0.02 | 92 | 1005.7 |
| 20260506202703 | 53 | 180 | 5.2 | 13.0 | 0.02 | 0.02 | 0.02 | 92 | 1005.7 |
| 20260506202205 | 53 | 169 | 4.3 | 12.2 | 0.02 | 0.02 | 0.02 | 92 | 1005.6 |
| 20260506201659 | 53 | 187 | 4.3 | 9.6 | 0.02 | 0.02 | 0.02 | 92 | 1005.6 |
| 20260506201202 | 53 | 168 | 4.3 | 10.4 | 0.02 | 0.02 | 0.02 | 91 | 1005.6 |
| 20260506200659 | 53 | 188 | 4.3 | 12.2 | 0.02 | 0.02 | 0.02 | 91 | 1005.7 |
| 20260506200200 | 53 | 169 | 4.3 | 12.2 | 0.01 | 0.01 | 0.01 | 91 | 1005.8 |
| 20260506195659 | 54 | 215 | 4.3 | 8.7 | 0.01 | 0.01 | 0.01 | 91 | 1006.0 |
| 20260506195201 | 54 | 205 | 3.5 | 10.4 | 0.00 | 0.00 | 0.01 | 91 | 1006.1 |
| 20260506194659 | 53 | 157 | 3.5 | 10.4 | 0.00 | 0.00 | 0.00 | 91 | 1006.2 |
| 20260506194201 | 53 | 195 | 4.3 | 10.4 | 0.00 | 0.00 | 0.00 | 92 | 1006.2 |
| 20260506193919 | 53 | 164 | 4.3 | 9.6 | 0.00 | 0.00 | 0.00 | 91 | 1006.3 |
| 20260506193155 | 53 | 246 | 4.3 | 9.6 | 0.00 | 0.00 | 0.00 | 91 | 1006.5 |
| 20260506192654 | 53 | 225 | 3.5 | 9.6 | 0.00 | 0.00 | 0.00 | 91 | 1006.4 |
| 20260506192155 | 53 | 286 | 3.5 | 8.7 | 0.00 | 0.00 | 0.00 | 91 | 1006.3 |
| 20260506191655 | 53 | 253 | 3.5 | 8.7 | 0.00 | 0.00 | 0.00 | 90 | 1006.2 |
| 20260506191157 | 53 | 267 | 4.3 | 8.7 | 0.00 | 0.00 | 0.00 | 90 | 1006.2 |
| 20260506190656 | 53 | 260 | 4.3 | 8.7 | 0.00 | 0.00 | 0.00 | 89 | 1006.1 |
| 20260506190155 | 54 | 218 | 5.2 | 12.2 | 0.00 | 0.00 | 0.00 | 88 | 1006.1 |
| 20260506185655 | 54 | 248 | 5.2 | 12.2 | 0.00 | 0.00 | 0.00 | 88 | 1006.1 |
| 20260506185155 | 54 | 222 | 4.3 | 12.2 | 0.00 | 0.00 | 0.00 | 88 | 1005.9 |
| 20260506184651 | 54 | 271 | 4.3 | 12.2 | 0.00 | 0.00 | 0.00 | 88 | 1005.8 |
| 20260506184147 | 54 | 215 | 5.2 | 12.2 | 0.00 | 0.00 | 0.00 | 88 | 1005.7 |
| 20260506183646 | 54 | 234 | 5.2 | 12.2 | 0.00 | 0.00 | 0.00 | 88 | 1005.8 |
| 20260506183405 | 54 | 203 | 4.3 | 14.8 | 0.00 | 0.00 | 0.00 | 88 | 1005.9 |
| 20260506182645 | 54 | 179 | 4.3 | 14.8 | 0.00 | 0.00 | 0.00 | 88 | 1006.0 |
| 20260506182146 | 54 | 224 | 4.3 | 13.9 | 0.00 | 0.00 | 0.00 | 88 | 1006.0 |
| 20260506181647 | 54 | 184 | 4.3 | 10.4 | 0.00 | 0.00 | 0.00 | 88 | 1006.1 |
| 20260506181145 | 54 | 183 | 4.3 | 11.3 | 0.00 | 0.00 | 0.00 | 87 | 1006.1 |
| 20260506180643 | 54 | 186 | 5.2 | 13.0 | 0.00 | 0.00 | 0.00 | 87 | 1006.1 |
| 20260506180143 | 54 | 175 | 5.2 | 13.0 | 0.00 | 0.00 | 0.00 | 87 | 1006.2 |
| 20260506175644 | 54 | 169 | 5.2 | 13.0 | 0.00 | 0.00 | 0.00 | 87 | 1006.2 |
| 20260506175142 | 54 | 209 | 5.2 | 13.0 | 0.00 | 0.00 | 0.00 | 87 | 1006.3 |
| 20260506174852 | 54 | 173 | 6.1 | 13.9 | 0.00 | 0.00 | 0.00 | 88 | 1006.3 |
| 20260506174130 | 54 | 202 | 5.2 | 14.8 | 0.00 | 0.00 | 0.00 | 88 | 1006.2 |
| 20260506173624 | 54 | 181 | 3.5 | 14.8 | 0.00 | 0.00 | 0.00 | 88 | 1006.2 |
| 20260506173600 | 53 | 178 | 4.3 | 10.4 | 0.00 | 0.00 | 0.00 | 88 | 1006.3 |
| 20260506172612 | 53 | 203 | 5.2 | 10.4 | 0.00 | 0.00 | 0.00 | 88 | 1006.4 |
| 20260506172105 | 53 | 193 | 4.3 | 12.2 | 0.00 | 0.00 | 0.00 | 88 | 1006.5 |
| 20260506171600 | 53 | 202 | 4.3 | 12.2 | 0.00 | 0.00 | 0.00 | 88 | 1006.6 |
| 20260506171052 | 53 | 180 | 4.3 | 13.0 | 0.00 | 0.00 | 0.00 | 88 | 1006.6 |
| 20260506170547 | 53 | 207 | 4.3 | 13.0 | 0.00 | 0.00 | 0.00 | 88 | 1006.8 |
| 20260506170040 | 53 | 186 | 4.3 | 10.4 | 0.00 | 0.00 | 0.00 | 88 | 1006.8 |
| 20260506165535 | 53 | 176 | 4.3 | 10.4 | 0.00 | 0.00 | 0.00 | 88 | 1007.0 |
| 20260506165035 | 53 | 195 | 5.2 | 9.6 | 0.00 | 0.00 | 0.00 | 88 | 1007.1 |
| 20260506164536 | 53 | 210 | 5.2 | 13.0 | 0.00 | 0.00 | 0.00 | 88 | 1007.2 |
| 20260506164035 | 53 | 164 | 5.2 | 13.0 | 0.00 | 0.00 | 0.00 | 88 | 1007.2 |
| 20260506163534 | 54 | 176 | 4.3 | 11.3 | 0.00 | 0.00 | 0.00 | 87 | 1007.3 |
| 20260506163035 | 54 | 221 | 4.3 | 11.3 | 0.00 | 0.00 | 0.00 | 87 | 1007.5 |
| 20260506162533 | 54 | 184 | 3.5 | 10.4 | 0.00 | 0.00 | 0.00 | 88 | 1007.5 |
| 20260506162259 | 54 | 184 | 4.3 | 10.4 | 0.00 | 0.00 | 0.00 | 87 | 1007.7 |
| 20260506161533 | 54 | 188 | 4.3 | 10.4 | 0.00 | 0.00 | 0.00 | 87 | 1007.8 |
| 20260506161034 | 54 | 237 | 5.2 | 10.4 | 0.00 | 0.00 | 0.00 | 87 | 1007.8 |
| 20260506160533 | 54 | 148 | 5.2 | 10.4 | 0.00 | 0.00 | 0.00 | 87 | 1007.9 |
| 20260506160033 | 54 | 171 | 4.3 | 13.0 | 0.00 | 0.00 | 0.00 | 87 | 1008.0 |
| 20260506155533 | 54 | 184 | 5.2 | 13.0 | 0.00 | 0.00 | 0.00 | 89 | 1008.1 |
| 20260506155032 | 53 | 138 | 5.2 | 13.0 | 0.00 | 0.00 | 0.00 | 88 | 1008.1 |
| 20260506154535 | 53 | 207 | 6.1 | 13.0 | 0.00 | 0.00 | 0.00 | 89 | 1008.1 |
| 20260506154033 | 53 | 181 | 5.2 | 11.3 | 0.00 | 0.00 | 0.00 | 88 | 1008.0 |
| 20260506153532 | 53 | 173 | 6.1 | 15.6 | 0.00 | 0.00 | 0.00 | 88 | 1008.0 |
| 20260506153249 | 54 | 182 | 5.2 | 15.6 | 0.00 | 0.00 | 0.00 | 87 | 1008.2 |
| 20260506152521 | 54 | 190 | 4.3 | 12.2 | 0.00 | 0.00 | 0.00 | 87 | 1008.4 |
| 20260506152015 | 54 | 197 | 5.2 | 12.2 | 0.00 | 0.00 | 0.00 | 87 | 1008.3 |
| 20260506151734 | 54 | 167 | 5.2 | 13.9 | 0.00 | 0.00 | 0.00 | 87 | 1008.1 |
| 20260506151002 | 55 | 206 | 5.2 | 16.5 | 0.00 | 0.00 | 0.00 | 87 | 1008.0 |
| 20260506150459 | 55 | 172 | 5.2 | 16.5 | 0.00 | 0.00 | 0.00 | 86 | 1008.1 |
| 20260506145959 | 55 | 222 | 4.3 | 11.3 | 0.00 | 0.00 | 0.00 | 86 | 1008.1 |
| 20260506145725 | 56 | 192 | 5.2 | 12.2 | 0.00 | 0.00 | 0.00 | 87 | 1007.9 |
| 20260506145001 | 55 | 242 | 6.1 | 20.9 | 0.00 | 0.00 | 0.00 | 87 | 1007.9 |
| 20260506144457 | 55 | 180 | 6.1 | 20.9 | 0.00 | 0.00 | 0.00 | 88 | 1007.7 |
| 20260506143959 | 55 | 306 | 6.1 | 14.8 | 0.00 | 0.00 | 0.00 | 88 | 1007.8 |
| 20260506143455 | 54 | 178 | 5.2 | 13.0 | 0.00 | 0.00 | 0.00 | 88 | 1007.8 |
| 20260506143215 | 54 | 182 | 4.3 | 12.2 | 0.00 | 0.00 | 0.00 | 88 | 1007.8 |
| 20260506142455 | 54 | 225 | 5.2 | 12.2 | 0.00 | 0.00 | 0.00 | 88 | 1007.9 |
| 20260506141955 | 54 | 222 | 4.3 | 11.3 | 0.00 | 0.00 | 0.00 | 89 | 1008.0 |
| 20260506141723 | 54 | 231 | 3.5 | 11.3 | 0.00 | 0.00 | 0.00 | 89 | 1008.1 |
| 20260506140955 | 54 | 198 | 2.6 | 9.6 | 0.00 | 0.00 | 0.00 | 89 | 1008.2 |
| 20260506140455 | 54 | 239 | 2.6 | 7.8 | 0.00 | 0.00 | 0.00 | 89 | 1008.3 |
| 20260506135955 | 54 | 164 | 3.5 | 10.4 | 0.00 | 0.00 | 0.00 | 89 | 1008.3 |
| 20260506135454 | 53 | 211 | 3.5 | 11.3 | 0.00 | 0.00 | 0.00 | 89 | 1008.4 |
| 20260506134955 | 53 | 203 | 3.5 | 11.3 | 0.00 | 0.00 | 0.00 | 89 | 1008.4 |
| 20260506134455 | 53 | 217 | 3.5 | 13.0 | 0.00 | 0.00 | 0.00 | 90 | 1008.4 |
| 20260506133948 | 53 | 196 | 4.3 | 13.0 | 0.00 | 0.00 | 0.00 | 90 | 1008.4 |
| 20260506133442 | 53 | 236 | 4.3 | 13.0 | 0.00 | 0.00 | 0.00 | 89 | 1008.4 |
| 20260506132936 | 53 | 194 | 4.3 | 13.0 | 0.00 | 0.00 | 0.00 | 89 | 1008.3 |
| 20260506132430 | 53 | 192 | 4.3 | 10.4 | 0.00 | 0.00 | 0.00 | 89 | 1008.3 |
| 20260506132148 | 53 | 152 | 4.3 | 10.4 | 0.00 | 0.00 | 0.00 | 89 | 1008.3 |
| 20260506131418 | 53 | 217 | 4.3 | 9.6 | 0.00 | 0.00 | 0.00 | 89 | 1008.2 |
| 20260506130912 | 53 | 217 | 5.2 | 16.5 | 0.00 | 0.00 | 0.00 | 90 | 1008.2 |
| 20260506130406 | 53 | 180 | 5.2 | 16.5 | 0.00 | 0.00 | 0.00 | 89 | 1008.1 |
| 20260506125900 | 53 | 225 | 5.2 | 13.9 | 0.00 | 0.00 | 0.00 | 90 | 1008.2 |
| 20260506125355 | 53 | 236 | 5.2 | 13.9 | 0.00 | 0.00 | 0.00 | 89 | 1008.2 |
| 20260506125112 | 53 | 206 | 4.3 | 11.3 | 0.00 | 0.00 | 0.00 | 89 | 1008.2 |
| 20260506124342 | 53 | 167 | 4.3 | 10.4 | 0.00 | 0.00 | 0.00 | 89 | 1008.2 |
| 20260506123836 | 53 | 194 | 4.3 | 10.4 | 0.00 | 0.00 | 0.00 | 89 | 1008.1 |
| 20260506123331 | 53 | 156 | 4.3 | 13.0 | 0.00 | 0.00 | 0.00 | 90 | 1008.1 |
| 20260506122824 | 53 | 221 | 5.2 | 13.0 | 0.00 | 0.00 | 0.00 | 90 | 1008.1 |
| 20260506122319 | 52 | 204 | 4.3 | 11.3 | 0.00 | 0.00 | 0.00 | 90 | 1008.4 |
| 20260506122035 | 52 | 173 | 4.3 | 10.4 | 0.00 | 0.00 | 0.00 | 90 | 1008.4 |
| 20260506121306 | 52 | 210 | 4.3 | 10.4 | 0.00 | 0.00 | 0.00 | 90 | 1008.4 |
| 20260506121025 | 52 | 203 | 4.3 | 9.6 | 0.00 | 0.00 | 0.00 | 90 | 1008.5 |
| 20260506120522 | 52 | 223 | 4.3 | 9.6 | 0.00 | 0.00 | 0.00 | 90 | 1008.4 |
| 20260506115805 | 52 | 200 | 3.5 | 11.3 | 0.00 | 0.00 | 0.00 | 90 | 1008.4 |
| 20260506115307 | 52 | 198 | 3.5 | 11.3 | 0.00 | 0.00 | 0.00 | 91 | 1008.6 |
| 20260506115024 | 52 | 191 | 3.5 | 12.2 | 0.00 | 0.00 | 0.00 | 91 | 1008.6 |
| 20260506114305 | 52 | 194 | 3.5 | 12.2 | 0.00 | 0.00 | 0.00 | 90 | 1008.6 |
| 20260506113805 | 52 | 199 | 3.5 | 11.3 | 0.00 | 0.00 | 0.00 | 90 | 1008.7 |
| 20260506113749 | 52 | 203 | 3.5 | 8.7 | 0.00 | 0.00 | 0.00 | 90 | 1008.8 |
| 20260506112803 | 52 | 173 | 3.5 | 11.3 | 0.00 | 0.00 | 0.00 | 90 | 1008.7 |
| 20260506112305 | 52 | 200 | 3.5 | 11.3 | 0.00 | 0.00 | 0.00 | 90 | 1008.6 |
| 20260506111802 | 52 | 153 | 3.5 | 10.4 | 0.00 | 0.00 | 0.00 | 90 | 1008.6 |
| 20260506111748 | 52 | 200 | 3.5 | 10.4 | 0.00 | 0.00 | 0.00 | 91 | 1008.4 |
| 20260506110803 | 51 | 196 | 3.5 | 10.4 | 0.00 | 0.00 | 0.00 | 91 | 1008.5 |
| 20260506110257 | 51 | 213 | 3.5 | 10.4 | 0.00 | 0.00 | 0.00 | 91 | 1008.5 |
| 20260506110014 | 51 | 208 | 2.6 | 8.7 | 0.00 | 0.00 | 0.00 | 91 | 1008.5 |
| 20260506105244 | 51 | 229 | 1.7 | 7.0 | 0.00 | 0.00 | 0.00 | 91 | 1008.6 |
| 20260506104740 | 51 | 205 | 3.5 | 7.8 | 0.00 | 0.00 | 0.00 | 91 | 1008.6 |
| 20260506104233 | 51 | 202 | 3.5 | 10.4 | 0.00 | 0.00 | 0.00 | 91 | 1008.5 |
| 20260506103726 | 51 | 244 | 3.5 | 10.4 | 0.00 | 0.00 | 0.00 | 91 | 1008.5 |
| 20260506103220 | 51 | 184 | 4.3 | 11.3 | 0.00 | 0.00 | 0.00 | 91 | 1008.5 |
| 20260506102715 | 51 | 219 | 3.5 | 11.3 | 0.00 | 0.00 | 0.00 | 91 | 1008.6 |
| 20260506102434 | 51 | 203 | 3.5 | 10.4 | 0.00 | 0.00 | 0.00 | 91 | 1008.6 |
| 20260506101703 | 51 | 188 | 3.5 | 10.4 | 0.00 | 0.00 | 0.00 | 91 | 1008.5 |
| 20260506101156 | 51 | 202 | 3.5 | 7.8 | 0.00 | 0.00 | 0.00 | 91 | 1008.2 |
| 20260506100651 | 51 | 182 | 3.5 | 7.8 | 0.00 | 0.00 | 0.00 | 91 | 1008.3 |
| 20260506100144 | 51 | 200 | 3.5 | 9.6 | 0.00 | 0.00 | 0.00 | 91 | 1008.3 |
| 20260506095638 | 50 | 197 | 2.6 | 9.6 | 0.00 | 0.00 | 0.00 | 91 | 1008.5 |
| 20260506095356 | 50 | 172 | 2.6 | 8.7 | 0.00 | 0.00 | 0.00 | 91 | 1008.4 |
| 20260506094626 | 50 | 217 | 2.6 | 12.2 | 0.00 | 0.00 | 0.00 | 91 | 1008.4 |
| 20260506094342 | 50 | 208 | 2.6 | 12.2 | 0.00 | 0.00 | 0.00 | 91 | 1008.3 |
| 20260506093615 | 50 | 198 | 1.7 | 7.0 | 0.00 | 0.00 | 0.00 | 91 | 1008.3 |
| 20260506093332 | 50 | 215 | 1.7 | 7.0 | 0.00 | 0.00 | 0.00 | 91 | 1008.3 |
| 20260506092823 | 50 | 232 | 2.6 | 8.7 | 0.00 | 0.00 | 0.00 | 91 | 1008.3 |
| 20260506092056 | 51 | 257 | 2.6 | 8.7 | 0.00 | 0.00 | 0.00 | 90 | 1008.3 |
| 20260506091551 | 51 | 221 | 2.6 | 7.8 | 0.00 | 0.00 | 0.00 | 91 | 1008.3 |
| 20260506091044 | 51 | 216 | 2.6 | 9.6 | 0.00 | 0.00 | 0.00 | 91 | 1008.2 |
| 20260506090803 | 51 | 207 | 3.5 | 9.6 | 0.00 | 0.00 | 0.00 | 91 | 1008.3 |
| 20260506090033 | 51 | 205 | 3.5 | 7.8 | 0.00 | 0.00 | 0.00 | 91 | 1008.3 |